Location: Lafig�re
(44.4503°N, 4.0357°E)
Time: 02:36:11
(UTC+00:00)

Transit 4A - Pass Details

Date: 29 January 2021
Orbit: 866 x 978 km, 66.8° (Epoch: 02 March)

Event Time Altitude Azimuth Distance (km) Brightness Sun altitude
Rises 16:38:40 0° 183° (S) 3,656 11.4 0.8°
Reaches altitude 10° 16:41:24 10° 175° (S) 2,717 10.6 0.4°
Maximum altitude 16:47:08 37° 111° (ESE) 1,486 8.7 -0.5°
Drops below altitude 10° 16:52:53 10° 46° (NE) 2,721 9.8 -1.5°
Sets 16:55:37 0° 39° (NE) 3,662 10.4 -1.9°
